Other Public Products
Issued by NWS Grand Forks, ND

Home | Current Version | Previous Version | Graphics & Text | Print | Product List | Glossary On
Versions: 1 2 3 4 5 6 7 8 9 10 11 12 13 14 15 16 17 18 19 20 21 22 23 24 25 26 27 28 29 30 31 32 33 34 35 36 37 38 39 40 41 42 43 44 45 46 47 48 49 50
000
FPUS83 KFGF 190831
OPUFGF
PRAIRIE TO PINES WEATHER ROUNDUP
NATIONAL WEATHER SERVICE EASTERN NORTH DAKOTA/GRAND FORKS ND
300 AM CDT THU OCT 19 2017

 **SATELLITE DATA USED TO AUGMENT SKY COVER AT AUTOMATED STATIONS**
 *****  WEATHER ACROSS EASTERN NORTH DAKOTA  *****

CITY           SKY/WX    TMP DP  RH WIND       PRES   REMARKS
GRAND FORKS    FAIR      38  26  62 SW6       29.91R
GRAND FORKS AF FAIR      39  24  56 SW9       29.90F
GRAND CITY NWS NOT AVBL
BUXTON           N/A     38  28  65 SW7         N/A
DEVILS LAKE    FAIR      45  33  63 S6        29.89F
FARGO          FAIR      40  28  62 S6        29.95S
WAHPETON ARPT  NOT AVBL
$$

 *****  WEATHER ACROSS CENTRAL AND WESTERN NORTH DAKOTA  *****

CITY           SKY/WX    TMP DP  RH WIND       PRES   REMARKS
JAMESTOWN      FAIR      33  26  75 S3        29.92F
BISMARCK       FAIR      38  27  64 NE9       29.88F
MINOT          FAIR      41  30  65 SE5       29.81F
MINOT AFB      FAIR      34  25  70 S7        29.79F
GARRISON         N/A     40  32  73 SE5       29.84F
WILLISTON      FAIR      38  26  62 S5        29.77F
DICKINSON      FAIR      45  25  45 S14       29.80F
HETTINGER      FAIR      35  24  64 SE5       29.87F
$$

 *****  OTHER OBSERVATIONS NORTHEAST NORTH DAKOTA  *****

CITY           SKY/WX    TMP DP  RH WIND       PRES   REMARKS
WALHALLA       FAIR     N/A N/A N/A W9G16     29.86R
LANGDON        FAIR      34  23  64 SW12      29.88R
CAVALIER       FAIR      43  23  45 SW9       29.87R
GRAFTON        FAIR      37  27  65 SW8       29.91S
CANDO          FAIR      30  25  80 SW5       29.89S
FORT TOTTEN      N/A     39  23  53 SE6       29.95S
ROLLA          FLURRIES  36  19  51 SW9       29.85F
RUGBY            N/A     36  27  69 SE7       29.85S
 ***** THE ABOVE OBSERVATIONS ARE NON NWS ARE NOT QUALITY
        CONTROLLED AND MAY MIS-REPORT RAIN FOR SNOW...
$$

 *****  OTHER OBSERVATIONS SOUTHEAST NORTH DAKOTA *****

CITY           SKY/WX    TMP DP  RH WIND       PRES   REMARKS
COOPERSTOWN    FAIR      34  27  75 SE5       29.93S
VALLEY CITY    FAIR      34  28  80 S6        29.94F
OAKES          NOT AVBL
GWINNER          N/A     39  30  70 SW7       29.96S
SHEYENNE NWR     N/A     34  29  81 SW5       29.95S
BUFFALO          N/A     38  24  58 SW2         N/A
WYNDMERE       NOT AVBL
 ***** THE ABOVE OBSERVATIONS ARE NON NWS ARE NOT QUALITY
       CONTROLLED AND MAY MIS-REPORT RAIN FOR SNOW...
$$

  *****  WEATHER ACROSS NORTHERN MINNESOTA  *****

CITY           SKY/WX    TMP DP  RH WIND       PRES   REMARKS
FLAG ISLAND    FAIR      46  18  31 W14       29.77S
WARROAD        FAIR      43  21  42 SW8       29.84R
ROSEAU         FAIR      45  21  39 SW12      29.85R
HALLOCK        FAIR      34  14  44 SW6       29.87R
THF RVR FALLS  FAIR      40  23  50 SW10      29.92R
HALSTAD          N/A     38  27  64 SW9         N/A
FOSSTON        FAIR      34  21  60 SW5       29.93F
BAUDETTE       FAIR      47  18  31 W13G26    29.82R
WASKISH        FAIR      46  30  53 W15G23    29.87S
CROOKSTON      FAIR      39  23  52 CALM      29.93S
$$
  *****  WEATHER ACROSS CENTRAL AND WEST MINNESOTA  *****

CITY           SKY/WX    TMP DP  RH WIND       PRES   REMARKS
BEMIDJI        FAIR      38  23  54 W7        29.92S
PARK RAPIDS    FAIR      38  26  62 S5        29.95S
WADENA         FAIR      39  28  65 SW7       29.97F
DETROIT LAKES  FAIR      43  30  61 SW3       29.97
MOORHEAD       FAIR      39  27  60 SE5       29.96F
FERGUS FALLS   FAIR      41  30  65 SE3       29.99F
ELBOW LAKE     FAIR      35  32  90 CALM      29.99S
MORRIS MN      FAIR      39  34  81 SW3       29.99S
STAPLES        FAIR      41  27  56 SW6       29.98S
WHEATON        FAIR      43  30  61 S8        30.00S
$$
  *****  WEATHER ELSEWHERE ACROSS MINNESOTA  *****

CITY           SKY/WX    TMP DP  RH WIND       PRES   REMARKS
DULUTH         FAIR      43  23  45 W14       29.90R
INTRNTL FALLS  FAIR      45  17  32 W8        29.81R
ELY            FAIR      45  18  33 W9        29.83R
CLOQUET        FAIR      45  19  36 SW8       29.93S
BRAINERD       FAIR      43  26  51 SW8       29.98R
HIBBING        FAIR      44  23  43 SW6       29.89R
ALEXANDRIA     FAIR      42  32  67 SW5       30.00F
SAINT CLOUD    FAIR      41  32  70 SW5       30.01R
MINNEAPOLIS    FAIR      50  31  48 SW6       30.03S
$$

  *****  WEATHER ACROSS SOUTH DAKOTA  *****

CITY           SKY/WX    TMP DP  RH WIND       PRES   REMARKS
SIOUX FALLS    FAIR      40  35  83 CALM      30.05F
BROOKINGS      FAIR      40  31  70 SE7       30.04S
WATERTOWN      FAIR      39  32  76 SE6       30.00F
HURON          FAIR      39  33  79 SE5       30.00S
SISSETON         N/A     52  28  39 SW13      29.96S
ABERDEEN       FAIR      35  29  78 S5        29.98F
MITCHELL       FAIR      47  32  56 S9        30.02F
PIERRE         FAIR      46  31  55 SE12      29.93F
MOBRIDGE       FAIR      49  35  58 SE13      29.88F
RAPID CITY     FAIR      52  29  41 S10       29.92F
$$

  *****  SOME WEATHER IN NEARBY STATES *****

CITY           SKY/WX    TMP DP  RH WIND       PRES   REMARKS
GLASGOW MT     FAIR      44  34  67 SE8       29.69F
GREAT FALLS MT FAIR      61  23  23 SW23G31   29.70F
CHEYENNE WY    FAIR      38  23  55 W9        30.13F
SCOTTSBLUFF NE FAIR      43  31  62 E8        30.07F
OMAHA NE       FAIR      47  42  83 N3        30.05R
DES MOINES IA  FAIR      52  48  86 CALM      30.06R
DAVENPORT IA   FAIR      53  45  74 SW5       30.07R
CHICAGO IL     FAIR      57  45  64 SW10      30.03S
EAU CLAIRE WI  FAIR      44  29  55 SW7       30.01S
LA CROSSE WI   FAIR      46  38  73 CALM      30.05R
$$

  *****  SOME NATIONAL WEATHER *****

CITY           SKY/WX    TMP DP  RH WIND       PRES   REMARKS
LA GUARDIA NY  FAIR      60  45  57 SW5       30.25S
RALEIGH NC     FAIR      43  43 100 CALM      30.30S
ATLANTA GA     FAIR      50  42  74 E7        30.27S
NEW ORLEANS LA FAIR      63  59  87 E5        30.14F
OKLAHOMA CITY  MOCLDY    52  45  77 S8        30.08S
ALBUQUERQUE NM MOCLDY    57  24  28 N9        30.14F
SALT LAKE CITY FAIR      45  33  63 SE8       30.04F
LOS ANGELES CA FAIR      65  61  87 E3        29.91S
BOISE ID       FAIR      54  29  38 SE12      29.86F
SEATTLE WA     LGT RAIN  53  50  89 SW12      29.63S
$$

*** WEATHER ACROSS MANITOBA...SASKATCHEWAN AND ONTARIO ***
                ***ONTARIO***

CITY           SKY/WX    TMP DP  RH WIND       PRES   REMARKS
GERALDTON      PTCLDY    45  19  36 SW15G22   29.52S
THUNDER BAY    PTCLDY    50  16  25 W13G23    29.69R
SIOUX LOOKOUT  MOCLDY    46  27  46 W13G25    29.62R
TORONTO        CLEAR     55  46  71 SW12      30.03F
BIG TROUT LK   LGT RAIN  36  36 100 W24G39    29.21R FOG
PICKLE LAKE    NOT AVBL
DRYDEN         CLEAR     45  19  36 W22G29    29.67R
KENORA         CLEAR     45  16  31 W10G21    29.74R
$$
                *** MANITOBA***

CITY           SKY/WX    TMP DP  RH WIND       PRES   REMARKS
BRANDON        CLEAR     28  18  64 SW7       29.82R WCI  21
DAUPHIN        CLEAR     39  16  38 SW8       29.76R
ISLAND LAKE    CLOUDY    36  32  87 W22G33    29.48R
PILOT MOUND      N/A     32  18  55 SW5         N/A
THE PAS        CLEAR     32  28  86 NW9       29.69R WCI  24
THOMPSON       MOCLDY    32  28  86 NW8       29.58R WCI  25
WINNIPEG       CLEAR     41  18  38 W14       29.80R
LYNN LAKE      CLOUDY    28  27  93 N6        29.66R WCI  22
CHURCHILL      LGT RAIN  36  34  93 NE25G37   29.51R
GILLAM         DRIZZLE   34  32  93 N22G29    29.40R WCI  22
$$
                ***SASKATCHEWAN***

CITY           SKY/WX    TMP DP  RH WIND       PRES   REMARKS
ESTEVAN        CLEAR     36  23  60 SE7       29.74F
KINDERSLEY     CLOUDY    50  37  62 SW13      29.43F
LLOYDMINSTER   PTCLDY    36  21  55 SE10G17   29.37F
PRINCE ALBERT  CLOUDY    30  25  80 E7        29.64F WCI  23
REGINA         CLOUDY    37  18  44 SE14G23   29.65
YORKTON        PTCLDY    28  18  64 SE6       29.73F WC



USA.gov is the U.S. government's official web portal to all federal, state and local government web resources and services.